Location: Chagrin Harbor
(41.6787°N, 81.4304°W)
Time: 23:31:04
(UTC+00:00)

Daily predictions for brighter satellites

Satellite Brightness Start Highest point End
(mag) Time Altitude Azimuth Time Altitude Azimuth Time Altitude Azimuth
Meteor 1-27 Rocket 4.2 23:28:39 10° N 23:33:44 36° ENE 23:38:46 10° SE
Cosmos 2278 4.1 23:29:15 10° S 23:34:31 42° ESE 23:39:50 10° NE
Cosmos 1408 Rocket 4.3 23:32:22 10° SSW 23:36:44 61° W 23:41:10 10° N
FALCON 9 DEB 2.9 23:34:34 10° SW 23:37:43 84° SE 23:40:53 10° NE
Aureole 1 Rocket 4.1 23:31:28 10° NNW 23:38:53 68° ENE 23:44:34 10° SSE
Cosmos 2297 Rocket 3.1 23:33:56 10° NNW 23:39:26 55° WSW 23:44:55 10° S
COSMOS 2455 3.4 23:35:43 10° NNW 23:41:17 37° NE 23:46:48 10° ESE
Cosmos 292 Rocket 3.7 23:38:00 10° S 23:42:41 67° ESE 23:47:25 10° NNE
CZ-2C R/B 3.6 23:39:49 10° NE 23:44:26 27° E 23:48:56 10° SSE
Cosmos 1331 Rocket 4.4 23:39:37 10° S 23:44:36 44° ESE 23:49:35 10° NNE
Helios 1A Rocket 3.9 23:41:46 10° ESE 23:45:08 25° ENE 23:48:29 10° NNE
CZ-2C R/B 3.4 23:39:32 10° SSE 23:45:22 89° W 23:51:06 10° NNW
SL-4 R/B 2.6 23:42:30 10° WSW 23:45:59 43° NNW 23:49:19 10° NE
Meteor 2-6 Rocket 4.4 23:40:37 10° N 23:46:23 83° W 23:51:55 10° S
YAOGAN 1 2.9 23:43:10 10° SE 23:47:17 44° ENE 23:51:24 10° N
Cosmos 220 Rocket 4.2 23:44:56 10° S 23:48:57 46° ESE 23:53:01 10° NNE
Cosmos 1500 Rocket 3.6 23:44:36 10° S 23:48:58 87° WNW 23:53:20 10° N
COSMO-SKYMED 1 3.0 23:45:27 10° N 23:49:47 70° WNW 23:54:05 10° SSW
Okean-O 2.9 23:45:40 10° SE 23:49:53 46° ENE 23:54:08 10° N
CZ-4B R/B 1.8 23:48:14 10° N 23:51:14 60° WNW 23:54:14 10° SSW
Cosmos 1515 Rocket 4.4 23:47:26 10° NNW 23:51:46 57° W 23:56:06 10° S
Gbstr 26 Del rocket 3.2 23:47:38 10° SW 23:51:47 63° SE 23:56:50 10° ENE
CSL-04 Rocket 4.3 23:47:05 10° SE 23:52:02 35° ENE 23:57:00 10° N
Lacrosse 5 rocket 1.6 23:49:05 10° NW 23:53:28 57° NE 23:57:35 10° ESE
Cosmos 1437 4.0 23:52:52 10° NNE 23:54:54 17° ENE 23:56:41 11° ESE
